[[{"header":{"parameterUnit":"m.s-1","parameterCategory":1,"la1":30.2992,"la2":30.254,"lo1":-89.0895,"lo2":-89.0443,"dy":0.0025,"dx":0.0025,"nx":19,"ny":19,"refTime":"2026-04-29T09:00:00:Z","depth":0,"parameterNumber":2,"parameterNumberName":"U-component_of_WINDS"},"data":[0,0,0,-3.5685,-3.5687,-3.5749,-3.5749,-3.5855,-3.5856,0,0,0,0,0,0,0,0,0,0,0,-3.5684,-3.5685,-3.5685,-3.5687,-3.5749,-3.5749,-3.5855,-3.5856,0,0,0,0,0,0,0,0,0,0,0,-3.5684,-3.5685,-3.5687,-3.5688,-3.5749,-3.5749,-3.5854,-3.5798,0,0,0,0,0,0,0,0,0,0,-3.5734,-3.5749,-3.5685,-3.5687,-3.5688,-3.5749,-3.5749,-3.5795,-3.5802,-3.5839,0,-3.5877,0,-3.5869,-3.5865,-3.5866,0,0,0,-3.5674,-3.5744,-3.5745,-3.5687,-3.5689,-3.5749,-3.5717,-3.5798,-3.5806,-3.5848,-3.5878,-3.5881,-3.587,-3.5866,-3.5867,-3.6126,-3.6128,0,0,-3.5671,-3.5704,-3.574,-3.5751,-3.5744,-3.5716,-3.5719,-3.5803,-3.5838,-3.5879,-3.5883,-3.5872,-3.5867,-3.5868,-3.6124,-3.6127,0,0,0,-3.567,-3.5703,-3.5701,-3.5747,-3.5756,-3.5718,-3.5722,-3.5834,-3.5831,-3.5884,-3.5873,-3.5868,-3.5869,-3.6122,-3.6125,-3.6249,0,0,0,-3.5667,-3.5702,-3.57,-3.5721,-3.5755,-3.5796,-3.5752,-3.5825,-3.5833,-3.5873,-3.5868,-3.5871,-3.612,-3.6124,-3.6241,-3.6302,0,0,0,-3.5674,-3.5702,-3.5717,-3.5723,-3.5751,-3.5794,-3.5795,-3.5826,-3.5827,-3.5866,-3.5871,-3.6119,-3.6123,-3.6234,-3.6291,-3.6382,0,0,0,-3.5691,-3.5825,-3.572,-3.5865,-3.5751,-3.587,-3.5794,-3.5881,-3.5928,-3.5868,-3.6121,-3.6125,-3.6232,-3.6284,-3.6375,-3.6466,-3.6506,0,0,-3.5879,-3.5849,-3.5932,-3.5839,-3.5986,-3.5857,-3.6022,-3.6033,-3.6006,-3.6088,-3.6093,-3.6244,-3.629,-3.638,-3.6719,-3.6752,0,0,0,-3.6003,-3.6063,-3.6094,-3.6142,-3.6154,-3.617,-3.6152,-3.6157,-3.6225,-3.6055,-3.6299,-3.6325,-3.6377,-3.6419,-3.6447,-3.649,-3.6145,-3.6145,-3.6144,-3.6317,-3.6275,-3.641,-3.6376,-3.6423,-3.6404,-3.6438,-3.644,-3.6383,-3.6442,-3.6467,-3.6677,-3.6728,-3.6748,-3.6794,-3.6509,-3.651,-3.651,-3.6511,-3.659,-3.6669,-3.6591,-3.6694,-3.6649,-3.6734,-3.6721,-3.6678,-3.6751,-3.6655,-3.6698,-3.6599,-3.6786,-3.6823,-3.6519,-3.6518,-3.6517,-3.6516,-3.6515,-3.6793,-3.6824,-3.6827,-3.6891,-3.6946,-3.6905,-3.698,-3.6935,-3.6893,-3.6936,-3.6958,-3.6956,-3.695,-3.6949,-3.695,-3.6951,-3.6951,-3.6952,-3.6952,-3.7004,-3.7003,-3.7071,-3.7096,-3.7121,-3.7148,-3.713,-3.7153,-3.7167,-3.7128,-3.7128,-3.7067,-3.6811,-3.6749,-3.6964,-3.6962,-3.696,-3.6959,-3.6958,-3.7299,-3.7225,-3.7332,-3.7357,-3.7382,-3.744,-3.7381,-3.7432,-3.7444,-3.7482,-3.7411,-3.7228,-3.7195,-3.7172,-3.7121,-3.7419,-3.7419,-3.7419,-3.7419,-3.7473,-3.7451,-3.755,-3.7593,-3.7629,-3.7587,-3.7709,-3.7696,-3.7671,-3.7676,-3.7626,-3.7553,-3.7532,-3.7511,-3.7481,-3.7432,-3.7803,-3.7803,-3.7804,-3.7653,-3.7633,-3.7745,-3.772,-3.7736,-3.7752,-3.7865,-3.7918,-3.7873,-3.7818,-3.768,-3.7664,-3.7545,-3.7508,-3.7452,-3.7407,-3.7317,0,0]},{"header":{"parameterUnit":"m.s-1","parameterCategory":1,"la1":30.2992,"la2":30.254,"lo1":-89.0895,"lo2":-89.0443,"dy":0.0025,"dx":0.0025,"nx":19,"ny":19,"refTime":"2026-04-29T09:00:00:Z","depth":0,"parameterNumber":3,"parameterNumberName":"V-component_of_WINDS"},"data":[0,0,0,-3.9591,-3.9592,-3.9628,-3.9628,-3.9681,-3.9682,0,0,0,0,0,0,0,0,0,0,0,-3.9586,-3.9586,-3.9591,-3.9592,-3.9628,-3.9628,-3.9681,-3.9682,0,0,0,0,0,0,0,0,0,0,0,-3.9586,-3.9586,-3.9587,-3.9592,-3.9628,-3.9628,-3.9681,-3.9651,0,0,0,0,0,0,0,0,0,0,-3.9615,-3.9615,-3.9586,-3.9587,-3.9593,-3.9628,-3.9628,-3.9649,-3.9653,-3.9668,0,-3.9684,0,-3.9684,-3.9686,-3.9686,0,0,0,-3.9588,-3.9613,-3.9617,-3.9587,-3.9593,-3.9628,-3.9611,-3.9651,-3.9655,-3.9673,-3.9685,-3.9686,-3.9685,-3.9686,-3.9686,-3.979,-3.979,0,0,-3.9586,-3.9595,-3.9615,-3.962,-3.9617,-3.961,-3.9612,-3.9653,-3.9667,-3.9685,-3.9688,-3.9686,-3.9687,-3.9687,-3.9789,-3.979,0,0,0,-3.9583,-3.9594,-3.9598,-3.9618,-3.9624,-3.9611,-3.9613,-3.9665,-3.9666,-3.9688,-3.9686,-3.9687,-3.9688,-3.9788,-3.9789,-3.9831,0,0,0,-3.9582,-3.9592,-3.9597,-3.9603,-3.9624,-3.9646,-3.9624,-3.9663,-3.9667,-3.9686,-3.9687,-3.9688,-3.9788,-3.9789,-3.9829,-3.985,0,0,0,-3.9582,-3.9592,-3.9599,-3.9603,-3.9619,-3.9645,-3.9647,-3.9663,-3.9666,-3.9686,-3.9688,-3.9787,-3.9789,-3.9826,-3.9846,-3.9878,0,0,0,-3.9584,-3.9637,-3.96,-3.9658,-3.9619,-3.9671,-3.9647,-3.9685,-3.9707,-3.9687,-3.9788,-3.9789,-3.9825,-3.9843,-3.9876,-3.9907,-3.9922,0,0,-3.9656,-3.9646,-3.9679,-3.9647,-3.9708,-3.9665,-3.9731,-3.9743,-3.9736,-3.9772,-3.9774,-3.983,-3.9845,-3.9878,-4.0,-4.0011,0,0,0,-3.9705,-3.9729,-3.9743,-3.9765,-3.9775,-3.9784,-3.9785,-3.9789,-3.9819,-3.9757,-3.9851,-3.986,-3.9878,-3.9893,-3.9903,-3.9917,-3.9797,-3.9796,-3.9796,-3.982,-3.9808,-3.9862,-3.9854,-3.9875,-3.9874,-3.9889,-3.9894,-3.9877,-3.9899,-3.9909,-3.9985,-4.0002,-4.001,-4.0025,-3.9926,-3.9926,-3.9926,-3.9926,-3.9923,-3.9954,-3.9928,-3.9971,-3.9958,-3.9993,-3.9994,-3.998,-4.001,-3.9977,-3.9992,-3.9956,-4.0022,-4.0035,-3.9929,-3.9929,-3.9928,-3.9928,-3.9928,-3.9996,-4.0008,-4.0012,-4.0041,-4.0064,-4.0054,-4.0084,-4.0071,-4.0059,-4.0075,-4.0083,-4.0082,-4.0079,-4.008,-4.008,-4.008,-4.0081,-4.0081,-4.0081,-4.007,-4.0072,-4.0099,-4.0113,-4.0124,-4.0137,-4.0136,-4.0146,-4.0154,-4.0142,-4.0142,-4.0121,-4.0032,-4.0009,-4.0085,-4.0084,-4.0084,-4.0083,-4.0083,-4.0177,-4.015,-4.0192,-4.0203,-4.0217,-4.024,-4.0223,-4.0244,-4.0251,-4.0266,-4.0241,-4.0178,-4.0166,-4.0158,-4.0139,-4.0245,-4.0245,-4.0245,-4.0245,-4.0238,-4.0231,-4.0269,-4.0287,-4.0304,-4.0292,-4.0337,-4.0336,-4.0331,-4.0333,-4.0316,-4.029,-4.0283,-4.0276,-4.0265,-4.0247,-4.0378,-4.0378,-4.0378,-4.0302,-4.0296,-4.0338,-4.0332,-4.0341,-4.0349,-4.0391,-4.0412,-4.04,-4.0383,-4.0335,-4.0329,-4.0287,-4.0274,-4.0255,-4.0239,-4.0206,0,0]}]]